Date String (YYYY-MM-DD hh:mm:ss) UTC,Instrument flags,Ambient pressure (hPa),Sample flow (lpm),Bypass flow (lpm),Sample temperature (°C),Ambient temperature (°C),ASC tube jacket temperature (°C),LED temperature (°C),Box temperature (°C),Sample RH (%),Span deviation,Mass concentration (μg/m³),Mass concentration (μg/m³),Mass concentration (μg/m³)
DateTimeUTC,F1_M11,P_M11,Q1_M11,Q2_M11,T1_M11,T2_M11,T3_M11,T4_M11,T5_M11,U1_M11,ZSPAN_M11,X0_M11,X2_M11,X1_M11
2021-10-16 12:00:00,,0834.1,5.01,0.00,24.6,23.7,00.0,33.7,26.4,09.5,0000.0,0007.37,0002.74,0001.99
2021-10-16 12:01:00,,0834.1,5.00,0.00,24.6,23.6,00.0,33.7,26.4,09.5,0000.0,0007.35,0002.70,0001.99
2021-10-16 12:02:00,,0834.1,5.00,0.00,24.6,23.6,00.0,33.7,26.4,09.5,0000.0,0007.66,0002.71,0001.99
2021-10-16 12:03:00,,0834.1,5.01,0.00,24.6,23.6,00.0,33.7,26.4,09.5,0000.0,0006.89,0002.71,0001.98
2021-10-16 12:04:00,,0834.1,4.99,0.00,24.6,23.6,00.0,33.7,26.4,09.4,0000.0,0006.53,0002.70,0001.98
2021-10-16 12:05:00,,0834.1,5.01,0.00,24.6,23.6,00.0,33.7,26.3,09.4,0000.0,0006.42,0002.71,0001.98
2021-10-16 12:06:00,,0834.1,4.99,0.00,24.6,23.6,00.0,33.7,26.4,09.4,0000.0,0006.33,0002.67,0001.99
2021-10-16 12:07:00,,0834.1,5.01,0.00,24.6,23.6,00.0,33.7,26.4,09.4,0000.0,0005.41,0002.63,0001.98
2021-10-16 12:08:00,,0834.2,5.00,0.00,24.6,23.6,00.0,33.7,26.4,09.4,0000.0,0005.04,0002.60,0001.98
2021-10-16 12:09:00,,0834.2,4.99,0.00,24.6,23.6,00.0,33.7,26.4,09.4,0000.0,0005.40,0002.62,0001.98
2021-10-16 12:10:00,,0834.3,5.01,0.00,24.6,23.6,00.0,33.7,26.4,09.4,0000.0,0006.34,0002.67,0001.97
2021-10-16 12:11:00,,0834.3,5.01,0.00,24.6,23.6,00.0,33.7,26.4,09.4,0000.0,0006.44,0002.66,0001.97
2021-10-16 12:12:00,,0834.3,4.99,0.00,24.6,23.6,00.0,33.7,26.3,09.4,0000.0,0006.70,0002.65,0001.95
2021-10-16 12:13:00,,0834.3,5.01,0.00,24.6,23.6,00.0,33.7,26.4,09.4,0000.0,0006.22,0002.60,0001.95
2021-10-16 12:14:00,,0834.3,4.99,0.00,24.6,23.6,00.0,33.7,26.4,09.4,0000.0,0006.15,0002.57,0001.94
2021-10-16 12:15:00,,0834.3,5.00,0.00,24.6,23.6,00.0,33.7,26.4,09.4,0000.0,0005.89,0002.58,0001.95
2021-10-16 12:16:00,,0834.3,4.99,0.00,24.6,23.6,00.0,33.7,26.4,09.4,0000.0,0006.11,0002.59,0001.96
2021-10-16 12:17:00,,0834.3,5.00,0.00,24.6,23.6,00.0,33.7,26.4,09.4,0000.0,0007.43,0002.66,0001.95
2021-10-16 12:18:00,,0834.3,5.00,0.00,24.6,23.6,00.0,33.7,26.3,09.4,0000.0,0007.66,0002.72,0001.95
2021-10-16 12:19:00,,0834.3,5.00,0.00,24.6,23.6,00.0,33.7,26.3,09.4,0000.0,0007.72,0002.75,0001.97
2021-10-16 12:20:00,,0834.3,5.01,0.00,24.6,23.6,00.0,33.7,26.3,09.4,0000.0,0007.62,0002.72,0001.97
2021-10-16 12:21:00,,0834.3,4.99,0.00,24.5,23.5,00.0,33.7,26.3,09.4,0000.0,0007.01,0002.71,0001.97
2021-10-16 12:22:00,,0834.3,5.00,0.00,24.5,23.5,00.0,33.7,26.3,09.4,0000.0,0006.70,0002.72,0001.96
2021-10-16 12:23:00,,0834.3,5.01,0.00,24.5,23.6,00.0,33.7,26.3,09.4,0000.0,0006.55,0002.76,0001.97
2021-10-16 12:24:00,,0834.3,4.99,0.00,24.5,23.6,00.0,33.7,26.4,09.4,0000.0,0006.43,0002.75,0001.96
2021-10-16 12:25:00,,0834.3,5.00,0.00,24.5,23.6,00.0,33.7,26.4,09.5,0000.0,0006.38,0002.77,0001.95
2021-10-16 12:26:00,,0834.3,4.99,0.00,24.5,23.6,00.0,33.7,26.4,09.5,0000.0,0006.40,0002.76,0001.94
2021-10-16 12:27:00,,0834.3,5.01,0.00,24.5,23.6,00.0,33.6,26.4,09.5,0000.0,0006.33,0002.74,0001.93
2021-10-16 12:28:00,,0834.3,4.99,0.00,24.5,23.6,00.0,33.7,26.4,09.5,0000.0,0004.91,0002.70,0001.95
2021-10-16 12:29:00,,0834.2,5.00,0.00,24.5,23.6,00.0,33.6,26.3,09.5,0000.0,0004.48,0002.65,0001.94
2021-10-16 12:30:00,,0834.3,5.00,0.00,24.5,23.6,00.0,33.7,26.3,09.5,0000.0,0004.35,0002.63,0001.92
2021-10-16 12:31:00,,0834.3,4.99,0.00,24.5,23.5,00.0,33.6,26.3,09.5,0000.0,0004.58,0002.67,0001.91
2021-10-16 12:32:00,,0834.3,5.02,0.00,24.5,23.5,00.0,33.6,26.3,09.5,0000.0,0004.54,0002.66,0001.91
2021-10-16 12:33:00,,0834.3,4.99,0.00,24.5,23.5,00.0,33.6,26.3,09.5,0000.0,0004.63,0002.67,0001.92
2021-10-16 12:34:00,,0834.3,5.00,0.00,24.5,23.5,00.0,33.6,26.3,09.5,0000.0,0004.68,0002.65,0001.91
2021-10-16 12:35:00,,0834.3,5.00,0.00,24.5,23.5,00.0,33.6,26.3,09.5,0000.0,0004.64,0002.63,0001.91
2021-10-16 12:36:00,,0834.3,4.99,0.00,24.5,23.5,00.0,33.6,26.3,09.4,0000.0,0004.42,0002.57,0001.90
2021-10-16 12:37:00,,0834.3,4.99,0.00,24.5,23.5,00.0,33.6,26.3,09.4,0000.0,0004.36,0002.56,0001.90
2021-10-16 12:38:00,,0834.3,5.00,0.00,24.5,23.5,00.0,33.6,26.3,09.4,0000.0,0004.60,0002.64,0001.90
2021-10-16 12:39:00,,0834.3,5.00,0.00,24.5,23.5,00.0,33.6,26.3,09.4,0000.0,0004.74,0002.67,0001.89
2021-10-16 12:40:00,,0834.3,4.99,0.00,24.5,23.5,00.0,33.6,26.2,09.4,0000.0,0005.14,0002.65,0001.87
2021-10-16 12:41:00,,0834.3,5.01,0.00,24.4,23.5,00.0,33.6,26.2,09.4,0000.0,0006.37,0002.65,0001.88
2021-10-16 12:42:00,,0834.3,5.01,0.00,24.4,23.5,00.0,33.6,26.2,09.4,0000.0,0006.31,0002.62,0001.88
2021-10-16 12:43:00,,0834.3,4.99,0.00,24.4,23.5,00.0,33.6,26.2,09.4,0000.0,0006.32,0002.64,0001.88
2021-10-16 12:44:00,,0834.2,5.00,0.00,24.4,23.4,00.0,33.6,26.2,09.4,0000.0,0006.24,0002.62,0001.87
2021-10-16 12:45:00,,0834.2,5.00,0.00,24.4,23.4,00.0,33.6,26.2,09.5,0000.0,0006.04,0002.58,0001.87
2021-10-16 12:46:00,,0834.1,4.99,0.00,24.4,23.4,00.0,33.6,26.2,09.4,0000.0,0006.34,0002.57,0001.88
2021-10-16 12:47:00,,0834.1,5.01,0.00,24.4,23.4,00.0,33.6,26.1,09.5,0000.0,0006.83,0002.57,0001.88
2021-10-16 12:48:00,,0834.1,5.00,0.00,24.3,23.4,00.0,33.5,26.1,09.5,0000.0,0006.92,0002.57,0001.88
2021-10-16 12:49:00,,0834.1,5.00,0.00,24.3,23.3,00.0,33.5,26.1,09.5,0000.0,0006.75,0002.51,0001.88
2021-10-16 12:50:00,,0834.1,5.01,0.00,24.3,23.3,00.0,33.5,26.1,09.5,0000.0,0006.67,0002.50,0001.89
2021-10-16 12:51:00,,0834.1,5.00,0.00,24.3,23.3,00.0,33.5,26.0,09.5,0000.0,0006.70,0002.57,0001.90
2021-10-16 12:52:00,,0834.0,4.99,0.00,24.2,23.2,00.0,33.5,26.0,09.5,0000.0,0005.60,0002.63,0001.91
2021-10-16 12:53:00,,0834.1,5.02,0.00,24.2,23.2,00.0,33.4,26.0,09.5,0000.0,0005.57,0002.63,0001.92
2021-10-16 12:54:00,,0834.1,4.99,0.00,24.2,23.2,00.0,33.4,26.0,09.5,0000.0,0005.55,0002.63,0001.92
2021-10-16 12:55:00,,0834.1,5.00,0.00,24.2,23.2,00.0,33.4,26.0,09.5,0000.0,0005.57,0002.64,0001.94
2021-10-16 12:56:00,,0834.1,5.00,0.00,24.2,23.3,00.0,33.4,26.0,09.5,0000.0,0005.69,0002.68,0001.95
2021-10-16 12:57:00,,0834.0,5.00,0.00,24.2,23.3,00.0,33.4,26.0,09.5,0000.0,0005.39,0002.73,0001.96
2021-10-16 12:58:00,,0834.1,5.00,0.00,24.2,23.3,00.0,33.4,26.0,09.4,0000.0,0005.03,0002.78,0001.98
2021-10-16 12:59:00,,0834.1,5.00,0.00,24.2,23.3,00.0,33.4,26.1,09.4,0000.0,0006.62,0002.82,0001.99
